[[{"header":{"parameterUnit":"m.s-1","parameterCategory":2,"la1":30.2991,"la2":30.254,"lo1":-89.0895,"lo2":-89.0444,"dy":0.0017,"dx":0.0017,"nx":28,"ny":28,"refTime":"2025-06-11T09:00:00:Z","depth":"0","parameterNumber":2,"parameterNumberName":"U-component_of_CURRENTS"},"data":[0,0,0,0,0,0,0,0,0,0,0,0,0,0,0,0,0,0,0,0,0,0,0,0,0,0,0,0,0,0,0,0,0,0,0,0,0,0,0,0,0,0,0,0,0,0,0,0,0,0,0,0,0,0,0,0,0,0,-0.2532,-0.2532,0,-0.2514,-0.2513,-0.2513,-0.2417,-0.2415,-0.2413,-0.2411,-0.2258,-0.2255,-0.2253,0,0,0,0,0,0,0,0,0,0,0,0,0,-0.2319,-0.2324,-0.2532,-0.2532,-0.2532,-0.2514,-0.2513,-0.2513,-0.2417,-0.2415,-0.2413,-0.2411,-0.2258,-0.2256,-0.2253,0,0,0,0,0,0,0,0,0,0,0,0,0,-0.2363,-0.2326,-0.2532,-0.2486,-0.2482,-0.2514,-0.2513,-0.2512,-0.2418,-0.2415,-0.2412,-0.241,-0.2259,-0.2256,-0.2252,-0.2285,0,0,-0.2241,-0.224,0,0,0,0,0,0,0,0,-0.2361,-0.2371,-0.2493,-0.2489,-0.2485,-0.2469,-0.2382,-0.2432,-0.2418,-0.2437,-0.2411,-0.2408,-0.2321,-0.2312,-0.231,-0.2278,-0.2272,-0.2241,-0.2239,-0.2237,-0.2236,0,0,0,0,0,0,0,-0.2359,-0.237,-0.252,-0.2493,-0.2489,-0.2411,-0.2415,-0.2391,-0.2388,-0.2435,-0.2429,-0.2436,-0.2317,-0.2314,-0.2305,-0.2269,-0.2241,-0.2238,-0.2236,-0.2234,-0.2306,-0.231,0,0,0,0,0,0,-0.2384,-0.2369,-0.252,-0.252,-0.2421,-0.2418,-0.2422,-0.2473,-0.2391,-0.2379,-0.2439,-0.2432,-0.2321,-0.231,-0.2299,-0.2389,-0.2237,-0.2234,-0.2232,-0.2302,-0.2307,-0.2311,0,0,0,0,0,0,-0.238,-0.24,-0.2521,-0.2444,-0.2455,-0.2426,-0.2483,-0.2474,-0.2461,-0.2397,-0.2379,-0.2433,-0.2319,-0.2304,-0.2298,-0.2379,-0.2233,-0.2229,-0.2297,-0.2303,-0.2309,-0.2531,0,0,0,0,0,0,-0.2375,-0.2399,-0.244,-0.2448,-0.246,-0.2559,-0.2486,-0.2476,-0.2472,-0.2463,-0.2387,-0.237,-0.2315,-0.2304,-0.2295,-0.2372,-0.2226,-0.2292,-0.23,-0.2307,-0.2519,-0.2544,-0.2566,0,0,0,0,0,-0.2368,-0.2436,-0.2443,-0.246,-0.2521,-0.2562,-0.2561,-0.2524,-0.2475,-0.2495,-0.2446,-0.2372,-0.2346,-0.2304,-0.2292,-0.237,-0.2288,-0.2297,-0.2306,-0.2508,-0.2539,-0.2565,0,0,0,0,0,0,-0.2351,-0.2434,-0.244,-0.2528,-0.2553,-0.2547,-0.2555,-0.2535,-0.2513,-0.2486,-0.2411,-0.2395,-0.2428,-0.2369,-0.2325,-0.2416,-0.231,-0.2318,-0.2468,-0.2497,-0.252,-0.2481,-0.2223,0,0,0,0,0,-0.2377,-0.2456,-0.2502,-0.2568,-0.2583,-0.257,-0.2577,-0.2561,-0.2546,-0.2531,-0.2491,-0.2455,-0.2463,-0.245,-0.2436,-0.2473,-0.2373,-0.252,-0.2544,-0.2564,-0.2528,-0.2475,-0.2489,-0.2341,-0.2341,-0.234,0,0,-0.2393,-0.2442,-0.2488,-0.257,-0.2573,-0.2622,-0.2565,-0.2587,-0.2633,-0.2519,-0.2553,-0.253,-0.2491,-0.2547,-0.2557,-0.2501,-0.2563,-0.2576,-0.2593,-0.2544,-0.2485,-0.2499,-0.2511,-0.2347,-0.2346,-0.2345,0,0,-0.2429,-0.2501,-0.256,-0.2598,-0.263,-0.265,-0.2664,-0.2678,-0.2688,-0.2731,-0.2679,-0.2701,-0.2689,-0.27,-0.2699,-0.284,-0.2692,-0.2844,-0.2926,-0.2879,-0.2889,-0.2896,-0.2815,-0.2813,-0.2854,-0.2854,-0.2855,0,-0.2433,-0.2526,-0.2576,-0.2624,-0.2665,-0.2671,-0.2725,-0.2762,-0.2776,-0.2796,-0.2763,-0.2779,-0.277,-0.2834,-0.29,-0.2894,-0.2806,-0.2826,-0.2906,-0.2911,-0.2914,-0.2828,-0.2823,-0.2866,-0.2865,-0.2863,-0.2862,0,-0.2496,-0.2573,-0.2603,-0.2695,-0.2752,-0.2799,-0.287,-0.2919,-0.2933,-0.2953,-0.3009,-0.2998,-0.299,-0.3039,-0.3013,-0.3067,-0.2977,-0.2945,-0.2826,-0.2942,-0.2845,-0.2836,-0.2883,-0.2879,-0.2875,-0.2872,0,0,-0.2486,-0.2627,-0.263,-0.2671,-0.2793,-0.2829,-0.2957,-0.3053,-0.3074,-0.3132,-0.3132,-0.3248,-0.32,-0.3194,-0.3179,-0.3161,-0.3168,-0.3067,-0.3059,-0.297,-0.3011,-0.2967,-0.2951,-0.3129,-0.3129,-0.3128,-0.294,0,-0.2505,-0.2591,-0.2692,-0.2789,-0.2835,-0.2938,-0.3042,-0.3131,-0.3179,-0.318,-0.3217,-0.321,-0.3276,-0.3239,-0.326,-0.3154,-0.3146,-0.3217,-0.292,-0.2911,-0.2846,-0.2942,-0.2803,-0.2624,-0.293,-0.2928,-0.2927,0,-0.2516,-0.2573,-0.2663,-0.2808,-0.2839,-0.2911,-0.3034,-0.3129,-0.3194,-0.3219,-0.325,-0.3218,-0.3243,-0.3229,-0.3176,-0.3201,-0.3131,-0.3061,-0.3051,-0.2908,-0.285,-0.2553,-0.2594,-0.2595,-0.2911,-0.2912,-0.2913,0,-0.2411,-0.2558,-0.2622,-0.2671,-0.2835,-0.2896,-0.2988,-0.3107,-0.3154,-0.3186,-0.315,-0.3199,-0.3132,-0.3103,-0.3059,-0.3079,-0.2912,-0.2918,-0.2822,-0.2815,-0.2584,-0.2559,-0.2566,-0.2859,-0.2859,-0.286,-0.2861,0,-0.2385,-0.2425,-0.2557,-0.2576,-0.2627,-0.2795,-0.2841,-0.2947,-0.3018,-0.3018,-0.3116,-0.3069,-0.3085,-0.3016,-0.2995,-0.2884,-0.2887,-0.2822,-0.2771,-0.2665,-0.2651,-0.2546,-0.2574,-0.2853,-0.2854,-0.2856,-0.2857,0,-0.2246,-0.2349,-0.2395,-0.2535,-0.2564,-0.2583,-0.2719,-0.2734,-0.2862,-0.2831,-0.2826,-0.291,-0.2859,-0.2867,-0.2764,-0.277,-0.2627,-0.2641,-0.2511,-0.2452,-0.2386,-0.2431,-0.2305,-0.2243,-0.2482,-0.248,-0.2479,0,-0.2187,-0.2192,-0.228,-0.227,-0.232,-0.2375,-0.2396,-0.2591,-0.2615,-0.2733,-0.2671,-0.2664,-0.2626,-0.2514,-0.2503,-0.2436,-0.2491,-0.2294,-0.2354,-0.2362,-0.2373,-0.2417,-0.2377,-0.2127,-0.2122,-0.2118,-0.2116,0,-0.2039,-0.2059,-0.2083,-0.2056,-0.2061,-0.2071,-0.2133,-0.2132,-0.2339,-0.2358,-0.2376,-0.2359,-0.2323,-0.2233,-0.2211,-0.2169,-0.2245,-0.2217,-0.2241,-0.2114,-0.2136,-0.2055,-0.2266,-0.2083,-0.2086,-0.2089,-0.209,-0.2092,-0.189,-0.1857,-0.1871,-0.184,-0.1831,-0.1772,-0.1715,-0.1786,-0.1804,-0.1817,-0.201,-0.1952,-0.2044,-0.1995,-0.1967,-0.1904,-0.1984,-0.1874,-0.1925,-0.1969,-0.1934,-0.2085,-0.186,-0.1862,-0.1864,-0.1865,-0.1866,0,-0.1707,-0.1694,-0.1656,-0.161,-0.1524,-0.1579,-0.1539,-0.1462,-0.1393,-0.143,-0.1469,-0.1589,-0.1577,-0.1668,-0.1695,-0.1643,-0.1615,-0.1631,-0.1649,-0.162,-0.1728,-0.1743,-0.1463,-0.1463,-0.1463,-0.1463,-0.1463,-0.1463,-0.1604,-0.1524,-0.1523,-0.1338,-0.1286,-0.113,-0.106,-0.0945,-0.092,-0.0843,-0.0886,-0.0938,-0.1249,-0.161,-0.1616,-0.1545,-0.1545,-0.1477,-0.1555,-0.1644,-0.1671,-0.1697,-0.1721,-0.1441,-0.1441,-0.1353,-0.1353,-0.1353]},{"header":{"parameterUnit":"m.s-1","parameterCategory":2,"la1":30.2991,"la2":30.254,"lo1":-89.0895,"lo2":-89.0444,"dy":0.0017,"dx":0.0017,"nx":28,"ny":28,"refTime":"2025-06-11T09:00:00:Z","depth":"0","parameterNumber":3,"parameterNumberName":"V-component_of_CURRENTS"},"data":[0,0,0,0,0,0,0,0,0,0,0,0,0,0,0,0,0,0,0,0,0,0,0,0,0,0,0,0,0,0,0,0,0,0,0,0,0,0,0,0,0,0,0,0,0,0,0,0,0,0,0,0,0,0,0,0,0,0,0.0534,0.0535,0,0.0651,0.0652,0.0654,0.0752,0.0754,0.0755,0.0756,0.086,0.0862,0.0863,0,0,0,0,0,0,0,0,0,0,0,0,0,0.0175,0.0182,0.0534,0.0535,0.0537,0.0651,0.0652,0.0654,0.0752,0.0754,0.0755,0.0756,0.086,0.0862,0.0864,0,0,0,0,0,0,0,0,0,0,0,0,0,0.0315,0.0184,0.0533,0.06,0.0608,0.0651,0.0652,0.0654,0.0752,0.0754,0.0755,0.0757,0.0859,0.0861,0.0864,0.0844,0,0,0.0872,0.0873,0,0,0,0,0,0,0,0,0.0307,0.0328,0.0589,0.0596,0.0604,0.069,0.0564,0.0718,0.0751,0.0696,0.0756,0.0758,0.0801,0.0809,0.0826,0.0849,0.0853,0.0872,0.0873,0.0874,0.0875,0,0,0,0,0,0,0,0.0297,0.0322,0.0579,0.0591,0.06,0.0549,0.0573,0.0593,0.0736,0.0701,0.0709,0.0723,0.0806,0.0823,0.0829,0.0855,0.0872,0.0874,0.0876,0.0877,0.0909,0.0908,0,0,0,0,0,0,0.0296,0.0315,0.0575,0.0583,0.0458,0.0555,0.0582,0.066,0.0737,0.075,0.0721,0.0727,0.0818,0.0826,0.0833,0.0821,0.0874,0.0877,0.0878,0.091,0.0909,0.0908,0,0,0,0,0,0,0.0289,0.0321,0.0571,0.0447,0.0476,0.0562,0.0647,0.0661,0.0678,0.0752,0.0766,0.0723,0.0819,0.0829,0.0845,0.0826,0.0878,0.088,0.091,0.0909,0.0909,0.0793,0,0,0,0,0,0,0.0279,0.0319,0.0358,0.045,0.0483,0.0571,0.0646,0.0662,0.0685,0.0693,0.0758,0.077,0.0822,0.084,0.0847,0.083,0.0882,0.0911,0.091,0.0909,0.0798,0.0789,0.0781,0,0,0,0,0,0.0267,0.0315,0.0361,0.039,0.0543,0.0569,0.0579,0.0643,0.0682,0.0668,0.0726,0.0768,0.0839,0.0841,0.0849,0.0833,0.0912,0.091,0.0909,0.0802,0.0791,0.0781,0,0,0,0,0,0,0.0167,0.0333,0.0384,0.048,0.0508,0.0586,0.0586,0.0627,0.0661,0.0674,0.075,0.0764,0.0779,0.0815,0.0816,0.0842,0.0886,0.0886,0.0802,0.0791,0.0783,0.0767,0.0884,0,0,0,0,0,0.0167,0.0264,0.0359,0.0426,0.044,0.0506,0.0523,0.0562,0.0611,0.0629,0.0678,0.0733,0.0777,0.079,0.0832,0.0826,0.0856,0.0826,0.0817,0.081,0.0803,0.0822,0.0814,0.0903,0.0903,0.0903,0,0,0.0148,0.0248,0.0302,0.0409,0.0445,0.0428,0.052,0.0536,0.0527,0.0631,0.0631,0.07,0.0771,0.0783,0.0792,0.0809,0.0798,0.0808,0.08,0.0799,0.082,0.0811,0.0803,0.0902,0.0903,0.0903,0,0,0.0106,0.0237,0.0269,0.0282,0.0331,0.0368,0.0363,0.0425,0.046,0.0466,0.0555,0.0612,0.0651,0.0715,0.075,0.0712,0.0756,0.0723,0.0656,0.0673,0.0665,0.0659,0.0672,0.0667,0.0711,0.0711,0.0711,0,0.0059,0.0135,0.0259,0.0244,0.0236,0.0329,0.0279,0.0322,0.0378,0.0404,0.0446,0.0556,0.0624,0.0662,0.0667,0.0692,0.0702,0.0686,0.0659,0.0654,0.0649,0.0664,0.0661,0.0705,0.0706,0.0706,0.0707,0,0.0019,0.0045,0.0044,0.0084,0.008,0.0057,0.0115,0.013,0.0189,0.0248,0.0307,0.0416,0.0485,0.0521,0.0586,0.0596,0.0612,0.0648,0.0679,0.0633,0.0652,0.0651,0.0697,0.0699,0.0701,0.0702,0,0,-0.0004,0.0016,0.0009,-0.003,-0.001,-0.0021,-0.0034,-0.0009,-0.0006,0.0086,0.0105,0.0228,0.0321,0.0369,0.0467,0.05,0.0495,0.0551,0.0554,0.055,0.0514,0.0598,0.0605,0.0511,0.0511,0.051,0.0535,0,-0.0094,-0.0157,-0.012,-0.0228,-0.0272,-0.0221,-0.0247,-0.0207,-0.0137,-0.0091,0.007,0.0124,0.0252,0.0289,0.0348,0.0473,0.0487,0.0484,0.0572,0.0574,0.0644,0.0606,0.0677,0.0711,0.0534,0.0534,0.0534,0,-0.0156,-0.0189,-0.0296,-0.0375,-0.0391,-0.0441,-0.0455,-0.046,-0.0357,-0.0297,-0.0189,-0.0064,0.0055,0.0148,0.0312,0.0297,0.0385,0.0473,0.0476,0.0596,0.0656,0.0734,0.0716,0.0886,0.0532,0.0532,0.0533,0,-0.0223,-0.0321,-0.0406,-0.0436,-0.0498,-0.0538,-0.0562,-0.0513,-0.0506,-0.0414,-0.0377,-0.023,-0.0113,-0.0006,0.024,0.0243,0.041,0.0432,0.0579,0.0585,0.0688,0.0705,0.0839,0.049,0.049,0.049,0.049,0,-0.0311,-0.0389,-0.0447,-0.0495,-0.061,-0.0624,-0.07,-0.0685,-0.0649,-0.0624,-0.0472,-0.038,-0.0146,0.0016,0.0169,0.0402,0.0353,0.0561,0.0597,0.0651,0.0664,0.0853,0.091,0.0491,0.0491,0.0491,0.0491,0,-0.0359,-0.0398,-0.0503,-0.0595,-0.0637,-0.0705,-0.0792,-0.0825,-0.0783,-0.0743,-0.0718,-0.0485,-0.0258,-0.0035,0.0192,0.0348,0.0627,0.0595,0.0653,0.0697,0.0975,0.1022,0.1172,0.1264,0.072,0.0723,0.0725,0,-0.0382,-0.0435,-0.0556,-0.062,-0.0667,-0.0772,-0.0839,-0.0874,-0.0904,-0.0772,-0.0748,-0.051,-0.0274,0.0106,0.038,0.0617,0.0741,0.0802,0.0829,0.1,0.1078,0.1106,0.1174,0.0908,0.0911,0.0914,0.0916,0,-0.0422,-0.0449,-0.0521,-0.0648,-0.0746,-0.0861,-0.0958,-0.1013,-0.1009,-0.0959,-0.0766,-0.0561,-0.0113,0.0281,0.0602,0.0746,0.0935,0.0863,0.1025,0.1223,0.1277,0.1381,0.0876,0.0939,0.0937,0.0935,0.0934,0.0933,-0.0425,-0.0476,-0.0553,-0.0678,-0.0789,-0.0909,-0.0976,-0.107,-0.1099,-0.0985,-0.0718,-0.029,0.0217,0.073,0.0877,0.1226,0.1152,0.1334,0.1368,0.1375,0.1498,0.1048,0.117,0.1169,0.1168,0.1167,0.1167,0,-0.043,-0.0485,-0.0585,-0.0718,-0.0815,-0.0879,-0.102,-0.106,-0.1086,-0.0892,-0.0623,0.024,0.0697,0.1113,0.155,0.1732,0.1753,0.1812,0.1869,0.1908,0.1507,0.1554,0.1785,0.1785,0.1784,0.1784,0.1784,0.1784,-0.0431,-0.0509,-0.0562,-0.0699,-0.078,-0.0884,-0.0945,-0.1001,-0.0904,-0.0535,0.0005,0.0491,0.1151,0.1777,0.2164,0.2187,0.2346,0.2321,0.2386,0.2124,0.2082,0.2042,0.2103,0.2444,0.2445,0.2798,0.2801,0.2804]}],[{"header":{"parameterUnit":"m.s-1","parameterCategory":2,"la1":30.2991,"la2":30.254,"lo1":-89.0895,"lo2":-89.0444,"dy":0.0017,"dx":0.0017,"nx":28,"ny":28,"refTime":"2025-06-11T09:00:00:Z","depth":"2","parameterNumber":2,"parameterNumberName":"U-component_of_CURRENTS"},"data":[0,0,0,0,0,0,0,0,0,0,0,0,0,0,0,0,0,0,0,0,0,0,0,0,0,0,0,0,0,0,0,0,0,0,0,0,0,0,0,0,0,0,0,0,0,0,0,0,0,0,0,0,0,0,0,0,0,0,-0.1919,-0.192,0,-0.2024,-0.2026,-0.2027,-0.1981,-0.1978,-0.1975,-0.1973,-0.2279,-0.2289,-0.23,0,0,0,0,0,0,0,0,0,0,0,0,0,-0.1894,-0.1894,-0.1919,-0.192,-0.1921,-0.2024,-0.2026,-0.2028,-0.1982,-0.1978,-0.1975,-0.1971,-0.2275,-0.2288,-0.2301,0,0,0,0,0,0,0,0,0,0,0,0,0,-0.1946,-0.1894,-0.1919,-0.1907,-0.1907,-0.2024,-0.2026,-0.2028,-0.1982,-0.1978,-0.1974,-0.197,-0.2271,-0.2287,-0.2303,-0.2492,0,0,-0.2353,-0.236,0,0,0,0,0,0,0,0,-0.1943,-0.1947,-0.1908,-0.1908,-0.1908,-0.1982,-0.2129,-0.2192,-0.1984,-0.1958,-0.1972,-0.1967,-0.2199,-0.2221,-0.2253,-0.2506,-0.2519,-0.2354,-0.2364,-0.2371,-0.2376,0,0,0,0,0,0,0,-0.1939,-0.1944,-0.1964,-0.1909,-0.1909,-0.1971,-0.1972,-0.2141,-0.2109,-0.196,-0.1956,-0.1963,-0.22,-0.2237,-0.226,-0.2524,-0.2354,-0.2368,-0.2378,-0.2385,-0.2795,-0.2796,0,0,0,0,0,0,-0.1912,-0.1939,-0.1961,-0.1967,-0.1911,-0.1974,-0.1975,-0.1966,-0.2102,-0.2116,-0.1967,-0.196,-0.2211,-0.2241,-0.2271,-0.2462,-0.2371,-0.2386,-0.2396,-0.2794,-0.2795,-0.2796,0,0,0,0,0,0,-0.1911,-0.1912,-0.1957,-0.1954,-0.1963,-0.1977,-0.1968,-0.197,-0.1989,-0.2104,-0.2121,-0.198,-0.2209,-0.2248,-0.2466,-0.2474,-0.2394,-0.2408,-0.2793,-0.2794,-0.2796,-0.2871,0,0,0,0,0,0,-0.1909,-0.1911,-0.1894,-0.1951,-0.1962,-0.2031,-0.1972,-0.1975,-0.1999,-0.1992,-0.2125,-0.2147,-0.2209,-0.2442,-0.2482,-0.2495,-0.2421,-0.2791,-0.2793,-0.2795,-0.2867,-0.2875,-0.2882,0,0,0,0,0,-0.1908,-0.1912,-0.1893,-0.1895,-0.1938,-0.2033,-0.2047,-0.2045,-0.2004,-0.2041,-0.2155,-0.2142,-0.2476,-0.2462,-0.2508,-0.2525,-0.279,-0.2793,-0.2795,-0.2864,-0.2874,-0.2882,0,0,0,0,0,0,-0.1899,-0.1909,-0.1889,-0.1893,-0.1956,-0.2023,-0.2048,-0.2055,-0.2169,-0.2166,-0.2253,-0.2292,-0.2458,-0.2498,-0.2477,-0.2633,-0.2594,-0.2606,-0.263,-0.264,-0.2647,-0.2506,-0.2435,0,0,0,0,0,-0.1888,-0.1878,-0.1929,-0.1933,-0.1962,-0.2007,-0.2039,-0.2055,-0.2157,-0.2193,-0.231,-0.2404,-0.251,-0.2582,-0.27,-0.286,-0.2801,-0.2863,-0.287,-0.2876,-0.2786,-0.2752,-0.2747,-0.2805,-0.2805,-0.2805,0,0,-0.1877,-0.1887,-0.1874,-0.1929,-0.1966,-0.2025,-0.2016,-0.2082,-0.2122,-0.2227,-0.2364,-0.248,-0.2564,-0.2715,-0.2781,-0.2751,-0.2845,-0.2879,-0.2885,-0.2788,-0.2754,-0.2748,-0.2742,-0.2806,-0.2806,-0.2806,0,0,-0.1891,-0.1871,-0.1884,-0.1945,-0.2014,-0.2045,-0.2063,-0.2173,-0.2202,-0.2388,-0.2423,-0.2549,-0.2767,-0.2799,-0.2838,-0.2959,-0.2898,-0.2977,-0.2908,-0.2881,-0.2874,-0.2867,-0.2847,-0.2837,-0.2965,-0.2965,-0.2965,0,-0.1878,-0.1893,-0.1915,-0.1976,-0.2008,-0.2048,-0.2102,-0.2159,-0.2333,-0.2364,-0.2431,-0.2649,-0.2774,-0.2831,-0.2868,-0.297,-0.2935,-0.2886,-0.2887,-0.2879,-0.287,-0.2849,-0.2838,-0.2969,-0.2969,-0.2968,-0.2968,0,-0.1924,-0.1941,-0.1971,-0.2019,-0.2072,-0.2135,-0.2205,-0.2281,-0.234,-0.2388,-0.2512,-0.2692,-0.2777,-0.2844,-0.2918,-0.29,-0.2893,-0.2919,-0.2859,-0.2868,-0.2848,-0.2834,-0.2975,-0.2973,-0.2972,-0.2971,0,0,-0.1878,-0.1971,-0.1985,-0.2007,-0.2098,-0.215,-0.221,-0.2266,-0.2285,-0.2433,-0.2471,-0.2644,-0.2683,-0.272,-0.281,-0.2792,-0.2794,-0.2821,-0.2818,-0.2786,-0.2719,-0.2683,-0.2665,-0.2821,-0.2818,-0.2815,-0.2751,0,-0.1901,-0.1992,-0.2035,-0.2104,-0.2144,-0.2195,-0.2247,-0.23,-0.2375,-0.2454,-0.2502,-0.261,-0.2641,-0.2729,-0.27,-0.2803,-0.2747,-0.2805,-0.2719,-0.2714,-0.2671,-0.2643,-0.2454,-0.2375,-0.2737,-0.2735,-0.2733,0,-0.1941,-0.1977,-0.2048,-0.2118,-0.2142,-0.2189,-0.2237,-0.2299,-0.2357,-0.2426,-0.2448,-0.2521,-0.254,-0.2593,-0.2571,-0.2607,-0.2616,-0.2652,-0.2652,-0.2546,-0.2648,-0.2411,-0.2335,-0.2709,-0.2711,-0.2713,-0.2715,0,-0.1891,-0.1995,-0.2029,-0.2063,-0.2147,-0.2173,-0.2214,-0.2277,-0.2323,-0.2389,-0.2452,-0.2442,-0.2513,-0.2466,-0.2537,-0.2559,-0.2506,-0.2569,-0.2498,-0.2499,-0.2269,-0.2254,-0.2454,-0.2454,-0.2454,-0.2455,-0.2455,0,-0.1896,-0.1928,-0.201,-0.2026,-0.2062,-0.2139,-0.2185,-0.2236,-0.2313,-0.2344,-0.2413,-0.2443,-0.2479,-0.2483,-0.2489,-0.244,-0.245,-0.242,-0.245,-0.2302,-0.2291,-0.2513,-0.2521,-0.2452,-0.2453,-0.2453,-0.2454,0,-0.1856,-0.1908,-0.1938,-0.2009,-0.2039,-0.206,-0.2166,-0.2196,-0.2284,-0.2337,-0.2359,-0.244,-0.2435,-0.2446,-0.2439,-0.2407,-0.2375,-0.234,-0.2169,-0.2177,-0.2393,-0.2406,-0.2238,-0.2235,-0.2233,-0.2231,-0.223,0,-0.1859,-0.1862,-0.1914,-0.1911,-0.1943,-0.2001,-0.2039,-0.2153,-0.2187,-0.2314,-0.232,-0.237,-0.2346,-0.2319,-0.2269,-0.22,-0.2291,-0.2016,-0.2002,-0.2309,-0.2357,-0.2373,-0.2389,-0.1763,-0.1758,-0.1754,-0.175,0,-0.1825,-0.1827,-0.1831,-0.1825,-0.1849,-0.1897,-0.1963,-0.1992,-0.211,-0.2162,-0.2193,-0.2193,-0.2177,-0.2031,-0.1987,-0.1932,-0.2019,-0.1929,-0.2252,-0.1865,-0.186,-0.191,-0.194,-0.1713,-0.1716,-0.1719,-0.1721,-0.1723,-0.179,-0.1749,-0.1735,-0.1723,-0.1739,-0.1753,-0.1747,-0.1821,-0.1854,-0.1895,-0.1985,-0.1931,-0.1927,-0.1746,-0.1668,-0.1627,-0.1763,-0.1704,-0.1716,-0.1734,-0.1707,-0.17,-0.1518,-0.1521,-0.1523,-0.1525,-0.1526,0,-0.1736,-0.1678,-0.1645,-0.1595,-0.1556,-0.1623,-0.1656,-0.1615,-0.1592,-0.166,-0.1661,-0.1506,-0.1413,-0.1422,-0.1282,-0.1275,-0.1257,-0.1244,-0.1213,-0.125,-0.1283,-0.1234,-0.0919,-0.0917,-0.0916,-0.0915,0,0,-0.1704,-0.1607,-0.1557,-0.143,-0.1395,-0.1316,-0.1299,-0.1264,-0.126,-0.1219,-0.1207,-0.1324,-0.1345,-0.1126,-0.1081,-0.097,-0.1096,-0.0923,-0.1403,-0.1398,-0.1429,-0.1535,-0.1501,0,0,0,0,0]},{"header":{"parameterUnit":"m.s-1","parameterCategory":2,"la1":30.2991,"la2":30.254,"lo1":-89.0895,"lo2":-89.0444,"dy":0.0017,"dx":0.0017,"nx":28,"ny":28,"refTime":"2025-06-11T09:00:00:Z","depth":"2","parameterNumber":3,"parameterNumberName":"V-component_of_CURRENTS"},"data":[0,0,0,0,0,0,0,0,0,0,0,0,0,0,0,0,0,0,0,0,0,0,0,0,0,0,0,0,0,0,0,0,0,0,0,0,0,0,0,0,0,0,0,0,0,0,0,0,0,0,0,0,0,0,0,0,0,0,-0.0273,-0.0272,0,-0.0186,-0.0185,-0.0184,-0.0131,-0.0131,-0.0131,-0.0131,0.0039,0.0043,0.0047,0,0,0,0,0,0,0,0,0,0,0,0,0,-0.0271,-0.0272,-0.0273,-0.0272,-0.0271,-0.0186,-0.0185,-0.0184,-0.0131,-0.0131,-0.0131,-0.0131,0.0037,0.0042,0.0048,0,0,0,0,0,0,0,0,0,0,0,0,0,-0.0236,-0.0272,-0.0273,-0.0235,-0.0231,-0.0187,-0.0185,-0.0184,-0.0131,-0.0131,-0.0131,-0.0131,0.0036,0.0042,0.0048,0.0083,0,0,0.0068,0.0071,0,0,0,0,0,0,0,0,-0.0238,-0.0236,-0.0242,-0.0237,-0.0233,-0.017,-0.0122,-0.0091,-0.0132,-0.0168,-0.0131,-0.013,-0.0024,-0.0013,0.0003,0.0091,0.0098,0.0069,0.0073,0.0075,0.0077,0,0,0,0,0,0,0,-0.0241,-0.0239,-0.0238,-0.024,-0.0235,-0.0181,-0.0176,-0.0116,-0.0097,-0.0165,-0.0161,-0.0153,-0.0021,-0.0004,0.0008,0.0101,0.0069,0.0074,0.0078,0.0081,0.0306,0.0308,0,0,0,0,0,0,-0.026,-0.0242,-0.024,-0.0235,-0.0236,-0.0181,-0.0177,-0.019,-0.0099,-0.0086,-0.0153,-0.0151,-0.0015,-0.0,0.0014,0.0122,0.0075,0.0082,0.0085,0.0304,0.0306,0.0309,0,0,0,0,0,0,-0.0261,-0.0262,-0.0244,-0.0235,-0.023,-0.0183,-0.0197,-0.0188,-0.0171,-0.0091,-0.0076,-0.0146,-0.0014,0.0005,0.0108,0.0127,0.0084,0.009,0.0301,0.0305,0.0307,0.03,0,0,0,0,0,0,-0.0262,-0.0263,-0.0279,-0.0238,-0.0231,-0.0228,-0.0197,-0.0187,-0.0167,-0.0163,-0.0079,-0.0064,-0.0012,0.0098,0.0114,0.0135,0.0095,0.0299,0.0303,0.0306,0.0298,0.0303,0.0307,0,0,0,0,0,-0.0262,-0.0295,-0.0281,-0.028,-0.0256,-0.0229,-0.0221,-0.0184,-0.0167,-0.0166,-0.0072,-0.0066,0.0133,0.0106,0.0124,0.0147,0.0297,0.0302,0.0306,0.0296,0.0302,0.0307,0,0,0,0,0,0,-0.03,-0.0291,-0.0275,-0.0303,-0.027,-0.0221,-0.0219,-0.0189,-0.012,-0.0109,-0.0028,-0.0004,0.0094,0.0125,0.0093,0.0226,0.0211,0.0219,0.0197,0.0203,0.0207,0.0121,0.0101,0,0,0,0,0,-0.0318,-0.0341,-0.0307,-0.0325,-0.0315,-0.0265,-0.0249,-0.0224,-0.0159,-0.0131,-0.0059,0.0028,0.0126,0.0167,0.0247,0.0317,0.0316,0.0342,0.0347,0.035,0.0295,0.0338,0.034,0.0324,0.0324,0.0324,0,0,-0.0334,-0.0333,-0.0344,-0.0334,-0.0306,-0.0295,-0.0255,-0.024,-0.0216,-0.012,-0.0053,0.0048,0.0153,0.0248,0.029,0.0275,0.0364,0.0356,0.0358,0.03,0.0343,0.0344,0.0345,0.0327,0.0327,0.0326,0,0,-0.038,-0.038,-0.0411,-0.0388,-0.0359,-0.0325,-0.0324,-0.0268,-0.0232,-0.0145,-0.0055,0.0061,0.0181,0.027,0.0331,0.0404,0.0394,0.0426,0.0371,0.0416,0.0416,0.0416,0.0444,0.0447,0.0419,0.0419,0.0419,0,-0.0397,-0.043,-0.041,-0.042,-0.0401,-0.0343,-0.0346,-0.0302,-0.0211,-0.0169,-0.013,0.0083,0.0191,0.0307,0.0347,0.041,0.0413,0.0343,0.0416,0.0416,0.0416,0.0445,0.0447,0.0419,0.0419,0.0419,0.0419,0,-0.0459,-0.047,-0.0482,-0.0477,-0.0454,-0.0448,-0.0384,-0.0344,-0.0278,-0.0218,-0.0093,0.0062,0.0178,0.0251,0.0329,0.0391,0.0389,0.0423,0.0388,0.0416,0.0447,0.045,0.042,0.042,0.0419,0.0419,0,0,-0.0533,-0.0528,-0.053,-0.0524,-0.0481,-0.0469,-0.0426,-0.0365,-0.0328,-0.0226,-0.0162,0.0032,0.0095,0.0165,0.0279,0.0324,0.0382,0.0355,0.0357,0.0355,0.0449,0.0497,0.0505,0.0415,0.0415,0.0415,0.0481,0,-0.0579,-0.0615,-0.0593,-0.0594,-0.0595,-0.0523,-0.0484,-0.0418,-0.0331,-0.0251,-0.0117,-0.0003,0.0066,0.0148,0.0199,0.0352,0.0381,0.0358,0.0443,0.0445,0.0462,0.0507,0.0487,0.0547,0.0483,0.0484,0.0484,0,-0.0649,-0.0656,-0.0678,-0.064,-0.0633,-0.0622,-0.0546,-0.0502,-0.0384,-0.031,-0.0217,-0.0107,0.0012,0.0067,0.0225,0.0198,0.0293,0.0385,0.0391,0.0418,0.0496,0.0507,0.0554,0.0488,0.0488,0.0487,0.0487,0,-0.0717,-0.0714,-0.0733,-0.0721,-0.0671,-0.0658,-0.0625,-0.0525,-0.0479,-0.0358,-0.0306,-0.0174,-0.0075,0.0024,0.0225,0.0219,0.0381,0.0416,0.0528,0.0532,0.052,0.0523,0.0477,0.0477,0.0477,0.0477,0.0477,0,-0.078,-0.0791,-0.077,-0.0776,-0.0782,-0.0722,-0.0703,-0.0639,-0.0545,-0.0489,-0.0359,-0.0278,-0.0088,0.0048,0.0185,0.0367,0.0351,0.0496,0.0549,0.0525,0.0528,0.047,0.0468,0.0479,0.0479,0.0478,0.0478,0,-0.0856,-0.0842,-0.0855,-0.0821,-0.0819,-0.0823,-0.0779,-0.0753,-0.066,-0.0584,-0.055,-0.0354,-0.0167,0.0017,0.0241,0.0343,0.051,0.0572,0.0526,0.0571,0.0629,0.0627,0.0679,0.0681,0.0683,0.0685,0.0686,0,-0.0904,-0.092,-0.091,-0.0922,-0.0915,-0.0914,-0.091,-0.0825,-0.0788,-0.0619,-0.0583,-0.038,-0.0204,0.0121,0.0348,0.0572,0.057,0.0666,0.0659,0.0602,0.0648,0.0643,0.0638,0.0653,0.0654,0.0655,0.0656,0,-0.098,-0.0974,-0.0979,-0.1005,-0.1017,-0.1022,-0.1005,-0.0995,-0.0872,-0.0778,-0.0602,-0.0442,-0.0107,0.0181,0.0473,0.0595,0.0628,0.0688,0.0652,0.061,0.0585,0.0628,0.0623,0.0662,0.0662,0.0661,0.0661,0.0661,-0.1037,-0.1049,-0.1057,-0.1079,-0.1096,-0.111,-0.111,-0.1058,-0.0979,-0.0803,-0.0641,-0.038,-0.0084,0.0347,0.0552,0.0719,0.0721,0.0756,0.0751,0.0745,0.0734,0.0715,0.0814,0.0814,0.0814,0.0814,0.0814,0,-0.1093,-0.1101,-0.113,-0.1142,-0.1172,-0.1164,-0.115,-0.1109,-0.1011,-0.0811,-0.0608,-0.0278,0.0057,0.0329,0.062,0.0804,0.0771,0.0807,0.0739,0.0733,0.0727,0.0712,0.0788,0.0788,0.0788,0.0788,0,0,-0.1126,-0.1155,-0.1154,-0.1205,-0.1216,-0.1224,-0.1213,-0.1124,-0.0982,-0.076,-0.0554,-0.0281,0.0079,0.0272,0.0514,0.0659,0.0633,0.0655,0.0663,0.055,0.0542,0.0694,0.0664,0,0,0,0,0]}],[{"header":{"parameterUnit":"m.s-1","parameterCategory":2,"la1":30.2991,"la2":30.254,"lo1":-89.0895,"lo2":-89.0444,"dy":0.0017,"dx":0.0017,"nx":28,"ny":28,"refTime":"2025-06-11T09:00:00:Z","depth":"4","parameterNumber":2,"parameterNumberName":"U-component_of_CURRENTS"},"data":[0,0,0,0,0,0,0,0,0,0,0,0,0,0,0,0,0,0,0,0,0,0,0,0,0,0,0,0,0,0,0,0,0,0,0,0,0,0,0,0,0,0,0,0,0,0,0,0,0,0,0,0,0,0,0,0,0,0,-0.1426,-0.1427,0,-0.1485,-0.1485,-0.1486,-0.1495,-0.1495,-0.1494,-0.1494,-0.147,-0.1469,-0.1469,0,0,0,0,0,0,0,0,0,0,0,0,0,-0.1363,-0.1363,-0.1426,-0.1427,-0.1428,-0.1485,-0.1485,-0.1486,-0.1495,-0.1495,-0.1494,-0.1494,-0.147,-0.1469,-0.1469,0,0,0,0,0,0,0,0,0,0,0,0,0,-0.1399,-0.1363,-0.1426,-0.1443,-0.1445,-0.1485,-0.1485,-0.1486,-0.1495,-0.1495,-0.1494,-0.1494,-0.147,-0.1469,-0.1469,-0.1469,0,0,-0.1466,-0.1466,0,0,0,0,0,0,0,0,-0.1397,-0.14,-0.1439,-0.1442,-0.1444,-0.1486,-0.1454,-0.1477,-0.1495,-0.1472,-0.1494,-0.1494,-0.147,-0.1469,-0.1476,-0.1467,-0.1466,-0.1466,-0.1466,-0.1465,-0.1465,0,0,0,0,0,0,0,-0.1394,-0.1398,-0.1445,-0.144,-0.1444,-0.1462,-0.1466,-0.1459,-0.1467,-0.1474,-0.1475,-0.1488,-0.147,-0.1477,-0.1476,-0.1466,-0.1466,-0.1466,-0.1465,-0.1465,-0.1508,-0.151,0,0,0,0,0,0,-0.1393,-0.1396,-0.1443,-0.1447,-0.1424,-0.1463,-0.1467,-0.1469,-0.1469,-0.147,-0.1489,-0.1489,-0.1479,-0.1477,-0.1475,-0.1505,-0.1465,-0.1465,-0.1464,-0.1506,-0.1508,-0.151,0,0,0,0,0,0,-0.1391,-0.1396,-0.1441,-0.1427,-0.1434,-0.1465,-0.1467,-0.1471,-0.1497,-0.1482,-0.1481,-0.1513,-0.1478,-0.1476,-0.1486,-0.1502,-0.1464,-0.1464,-0.1505,-0.1507,-0.1509,-0.1545,0,0,0,0,0,0,-0.1389,-0.1395,-0.1401,-0.1426,-0.1435,-0.1477,-0.1468,-0.1472,-0.1506,-0.1507,-0.1502,-0.1499,-0.1478,-0.1488,-0.1486,-0.1501,-0.1463,-0.1502,-0.1506,-0.1508,-0.1541,-0.1548,-0.1553,0,0,0,0,0,-0.1386,-0.1401,-0.14,-0.1407,-0.144,-0.1479,-0.1485,-0.1503,-0.1508,-0.1524,-0.1522,-0.15,-0.1506,-0.1488,-0.1485,-0.15,-0.1501,-0.1505,-0.1508,-0.1539,-0.1547,-0.1553,0,0,0,0,0,0,-0.138,-0.1405,-0.1404,-0.1425,-0.1454,-0.1482,-0.1508,-0.1518,-0.1532,-0.1537,-0.1515,-0.1511,-0.1527,-0.1517,-0.1499,-0.1526,-0.1502,-0.1505,-0.1526,-0.1534,-0.154,-0.155,-0.1462,0,0,0,0,0,-0.138,-0.1393,-0.1422,-0.1439,-0.146,-0.1486,-0.1507,-0.1522,-0.1538,-0.1546,-0.1542,-0.1542,-0.1539,-0.1539,-0.1536,-0.1549,-0.1551,-0.1561,-0.1567,-0.1572,-0.1582,-0.1594,-0.1601,-0.1522,-0.1522,-0.1522,0,0,-0.1377,-0.1398,-0.1402,-0.1438,-0.1464,-0.1495,-0.1498,-0.1542,-0.1563,-0.1539,-0.1568,-0.1562,-0.1549,-0.1561,-0.1568,-0.1554,-0.1601,-0.1577,-0.1581,-0.1588,-0.1598,-0.1606,-0.1613,-0.1524,-0.1524,-0.1524,0,0,-0.1389,-0.1406,-0.1423,-0.1453,-0.1501,-0.1519,-0.1538,-0.1578,-0.1594,-0.1618,-0.1607,-0.1613,-0.1617,-0.1606,-0.1599,-0.1641,-0.1633,-0.1651,-0.1685,-0.1697,-0.1703,-0.1708,-0.1737,-0.1744,-0.1652,-0.1652,-0.1652,0,-0.1387,-0.1411,-0.1436,-0.147,-0.1501,-0.1533,-0.1567,-0.1588,-0.1623,-0.1644,-0.1633,-0.1655,-0.1632,-0.1647,-0.1658,-0.165,-0.1671,-0.1652,-0.1703,-0.1708,-0.1713,-0.1741,-0.1748,-0.1654,-0.1654,-0.1654,-0.1654,0,-0.1405,-0.1437,-0.146,-0.1501,-0.1538,-0.1579,-0.1616,-0.165,-0.1672,-0.169,-0.1725,-0.1704,-0.1719,-0.1711,-0.169,-0.1724,-0.1733,-0.1707,-0.1679,-0.1723,-0.175,-0.1757,-0.1657,-0.1657,-0.1656,-0.1655,0,0,-0.1365,-0.1453,-0.1462,-0.1496,-0.1563,-0.1596,-0.1644,-0.1696,-0.1738,-0.1755,-0.1805,-0.1784,-0.1793,-0.1788,-0.1772,-0.1774,-0.1813,-0.1763,-0.1763,-0.1783,-0.1869,-0.1724,-0.1718,-0.1804,-0.1805,-0.1806,-0.1879,0,-0.1373,-0.1439,-0.1483,-0.1547,-0.1587,-0.1642,-0.1686,-0.1738,-0.1779,-0.1834,-0.1829,-0.1862,-0.1818,-0.1833,-0.1831,-0.1823,-0.1834,-0.1798,-0.1831,-0.1833,-0.169,-0.1721,-0.181,-0.1884,-0.1886,-0.1887,-0.1888,0,-0.1364,-0.1419,-0.1488,-0.1584,-0.161,-0.1652,-0.1747,-0.179,-0.1868,-0.1903,-0.1941,-0.1955,-0.1971,-0.1924,-0.1934,-0.1922,-0.1906,-0.1888,-0.189,-0.1745,-0.1699,-0.1829,-0.1901,-0.19,-0.1899,-0.1898,-0.1898,0,-0.1315,-0.1417,-0.1476,-0.1508,-0.1619,-0.1667,-0.1723,-0.1811,-0.1862,-0.1954,-0.2004,-0.2036,-0.2053,-0.2044,-0.1997,-0.1987,-0.2004,-0.1982,-0.1842,-0.1834,-0.1928,-0.1921,-0.1993,-0.1993,-0.1993,-0.1993,-0.1992,0,-0.1286,-0.1336,-0.1465,-0.1495,-0.1574,-0.1658,-0.1744,-0.1807,-0.1909,-0.1965,-0.2036,-0.2069,-0.2084,-0.209,-0.2049,-0.1959,-0.2044,-0.1856,-0.1836,-0.1944,-0.1939,-0.1934,-0.1926,-0.1995,-0.1995,-0.1994,-0.1994,0,-0.1204,-0.1294,-0.1371,-0.1506,-0.1551,-0.1604,-0.1741,-0.1794,-0.1907,-0.1986,-0.2018,-0.2111,-0.2102,-0.2098,-0.208,-0.2,-0.1942,-0.1889,-0.2027,-0.2014,-0.1766,-0.176,-0.1767,-0.1762,-0.1758,-0.1755,-0.1752,0,-0.1164,-0.1197,-0.1354,-0.1404,-0.1468,-0.1566,-0.1627,-0.1765,-0.1816,-0.1977,-0.1993,-0.2056,-0.2083,-0.1957,-0.1964,-0.1896,-0.1848,-0.1843,-0.178,-0.176,-0.1741,-0.1741,-0.174,-0.1746,-0.1745,-0.1744,-0.1743,0,-0.108,-0.1149,-0.1212,-0.1315,-0.1397,-0.1482,-0.1577,-0.161,-0.1756,-0.1887,-0.1904,-0.1904,-0.1897,-0.1858,-0.181,-0.1755,-0.1861,-0.1801,-0.1809,-0.175,-0.1734,-0.1719,-0.1723,-0.1729,-0.1731,-0.1732,-0.1733,0,-0.1013,-0.1035,-0.1128,-0.1203,-0.1302,-0.1354,-0.1432,-0.149,-0.1564,-0.1738,-0.1735,-0.1796,-0.1875,-0.1785,-0.1741,-0.1672,-0.1639,-0.1589,-0.1607,-0.1622,-0.1531,-0.1487,-0.1392,0,0,0,0,0,-0.0936,-0.0946,-0.1007,-0.1092,-0.1181,-0.1237,-0.1373,-0.1455,-0.1607,-0.1566,-0.1646,-0.1624,-0.1584,-0.1621,-0.151,-0.1661,-0.1638,-0.1529,-0.1589,-0.1652,-0.1668,-0.1568,0,0,0,0,0,0,-0.0889,-0.0931,-0.096,-0.0972,-0.0999,-0.1088,-0.1167,-0.1279,-0.1268,-0.1421,-0.1393,-0.1513,-0.1477,-0.1591,-0.1465,-0.1473,-0.1477,-0.157,-0.1566,-0.1643,-0.1658,-0.1671,-0.1573,0,0,0,0,0]},{"header":{"parameterUnit":"m.s-1","parameterCategory":2,"la1":30.2991,"la2":30.254,"lo1":-89.0895,"lo2":-89.0444,"dy":0.0017,"dx":0.0017,"nx":28,"ny":28,"refTime":"2025-06-11T09:00:00:Z","depth":"4","parameterNumber":3,"parameterNumberName":"V-component_of_CURRENTS"},"data":[0,0,0,0,0,0,0,0,0,0,0,0,0,0,0,0,0,0,0,0,0,0,0,0,0,0,0,0,0,0,0,0,0,0,0,0,0,0,0,0,0,0,0,0,0,0,0,0,0,0,0,0,0,0,0,0,0,0,-0.02,-0.0199,0,-0.014,-0.0139,-0.0139,-0.0098,-0.0098,-0.0098,-0.0097,-0.0031,-0.003,-0.0029,0,0,0,0,0,0,0,0,0,0,0,0,0,-0.0209,-0.021,-0.02,-0.0199,-0.0199,-0.014,-0.0139,-0.0138,-0.0098,-0.0098,-0.0097,-0.0097,-0.0032,-0.003,-0.0028,0,0,0,0,0,0,0,0,0,0,0,0,0,-0.0184,-0.021,-0.02,-0.0171,-0.0168,-0.014,-0.0139,-0.0138,-0.0098,-0.0098,-0.0097,-0.0097,-0.0032,-0.003,-0.0028,-0.0024,0,0,-0.0022,-0.0021,0,0,0,0,0,0,0,0,-0.0185,-0.0183,-0.0176,-0.0173,-0.0169,-0.0126,-0.0118,-0.01,-0.0098,-0.0125,-0.0097,-0.0097,-0.0063,-0.0058,-0.0048,-0.0021,-0.0018,-0.0021,-0.002,-0.0019,-0.0018,0,0,0,0,0,0,0,-0.0187,-0.0185,-0.0177,-0.0175,-0.0171,-0.0137,-0.0133,-0.0114,-0.0097,-0.0123,-0.012,-0.0113,-0.0061,-0.005,-0.0046,-0.0017,-0.0021,-0.0019,-0.0018,-0.0017,-0.0007,-0.0008,0,0,0,0,0,0,-0.0198,-0.0188,-0.0179,-0.0175,-0.0176,-0.0137,-0.0133,-0.0141,-0.0098,-0.0091,-0.0113,-0.0111,-0.0054,-0.0049,-0.0044,-0.0053,-0.0019,-0.0017,-0.0016,-0.0006,-0.0007,-0.0008,0,0,0,0,0,0,-0.0199,-0.0199,-0.0181,-0.0178,-0.0174,-0.0138,-0.0146,-0.014,-0.013,-0.009,-0.0083,-0.011,-0.0054,-0.0047,-0.0038,-0.005,-0.0016,-0.0014,-0.0005,-0.0006,-0.0008,-0.0061,0,0,0,0,0,0,-0.02,-0.02,-0.0212,-0.018,-0.0174,-0.0176,-0.0146,-0.0139,-0.0126,-0.0123,-0.0086,-0.0079,-0.0053,-0.0042,-0.0036,-0.0046,-0.0012,-0.0003,-0.0006,-0.0007,-0.0058,-0.0065,-0.007,0,0,0,0,0,-0.0201,-0.0222,-0.0213,-0.0212,-0.0192,-0.0176,-0.0171,-0.0143,-0.0127,-0.0131,-0.0108,-0.008,-0.005,-0.0041,-0.0034,-0.0044,-0.0003,-0.0005,-0.0007,-0.0056,-0.0063,-0.007,0,0,0,0,0,0,-0.0231,-0.0219,-0.0209,-0.0225,-0.0206,-0.0169,-0.017,-0.0149,-0.0132,-0.0129,-0.009,-0.0083,-0.0084,-0.0059,-0.0049,-0.0049,-0.0023,-0.0024,-0.0062,-0.0069,-0.0075,-0.0051,-0.001,0,0,0,0,0,-0.0245,-0.026,-0.0234,-0.0247,-0.024,-0.0206,-0.0196,-0.0178,-0.0155,-0.0147,-0.0121,-0.0099,-0.0088,-0.0075,-0.0064,-0.0056,0.0003,-0.006,-0.0066,-0.0071,-0.0048,0.0029,0.0033,-0.0016,-0.0016,-0.0016,0,0,-0.0259,-0.0255,-0.0262,-0.0255,-0.0236,-0.0233,-0.0199,-0.0191,-0.0185,-0.0143,-0.0135,-0.0122,-0.0095,-0.0094,-0.0091,-0.0071,-0.0032,-0.0074,-0.0078,-0.0052,0.0027,0.0032,0.0037,-0.0018,-0.0017,-0.0017,0,0,-0.0292,-0.0292,-0.0312,-0.03,-0.0281,-0.0259,-0.0259,-0.0229,-0.0214,-0.021,-0.0182,-0.0169,-0.0154,-0.0127,-0.0114,-0.0143,-0.0073,-0.015,-0.0146,-0.0074,-0.0068,-0.0062,0.0003,0.0015,-0.0143,-0.0143,-0.0143,0,-0.031,-0.033,-0.0313,-0.0322,-0.0311,-0.0274,-0.028,-0.0262,-0.0233,-0.0209,-0.0219,-0.017,-0.0166,-0.0127,-0.0152,-0.0153,-0.0097,-0.0123,-0.0078,-0.0071,-0.0063,0.0002,0.0016,-0.0146,-0.0146,-0.0146,-0.0145,0,-0.035,-0.0362,-0.037,-0.037,-0.0359,-0.0359,-0.0327,-0.0313,-0.0295,-0.0262,-0.023,-0.0214,-0.0171,-0.0186,-0.0184,-0.0135,-0.0109,-0.0101,-0.0054,-0.0061,0.0007,0.0023,-0.015,-0.0149,-0.0148,-0.0148,0,0,-0.0393,-0.04,-0.0401,-0.0405,-0.0383,-0.0378,-0.0362,-0.0325,-0.0296,-0.0273,-0.0224,-0.0225,-0.0187,-0.017,-0.0153,-0.0103,-0.0041,-0.0086,-0.0081,-0.0011,0.0128,0.0086,0.01,-0.0017,-0.0014,-0.0012,0.015,0,-0.0426,-0.0459,-0.0445,-0.046,-0.0468,-0.0423,-0.0408,-0.0366,-0.0325,-0.0272,-0.0218,-0.0184,-0.0186,-0.0173,-0.0118,-0.0062,0.0001,-0.0085,0.0116,0.0122,0.0097,0.0117,-0.0003,0.0162,0.0166,0.0169,0.017,0,-0.0463,-0.048,-0.0512,-0.0498,-0.0494,-0.0497,-0.0443,-0.0423,-0.0329,-0.0292,-0.0213,-0.0161,-0.0085,-0.0098,0.0053,0.0002,0.0065,0.0112,0.012,0.012,0.0111,0.0175,0.02,0.0198,0.0196,0.0194,0.0192,0,-0.0503,-0.0518,-0.0548,-0.0547,-0.0531,-0.0526,-0.0508,-0.0431,-0.0405,-0.0295,-0.0258,-0.0128,-0.0085,0.0035,0.012,0.01,0.0289,0.0278,0.0316,0.0314,0.0329,0.0321,0.0405,0.0404,0.0404,0.0404,0.0403,0,-0.0537,-0.0557,-0.0575,-0.0591,-0.0611,-0.0575,-0.0564,-0.0515,-0.0437,-0.0391,-0.0275,-0.0209,-0.0053,0.0069,0.0161,0.0289,0.0335,0.0338,0.0361,0.0296,0.0283,0.0339,0.033,0.041,0.0408,0.0407,0.0406,0,-0.057,-0.0585,-0.0622,-0.063,-0.0638,-0.0652,-0.0633,-0.0611,-0.0531,-0.0463,-0.0431,-0.0261,-0.0096,0.0064,0.0257,0.0316,0.0452,0.0485,0.0412,0.0426,0.0424,0.0409,0.0566,0.0566,0.0566,0.0566,0.0566,0,-0.0587,-0.0616,-0.0667,-0.07,-0.0713,-0.0731,-0.0736,-0.0673,-0.0642,-0.0496,-0.0462,-0.0284,-0.0162,0.011,0.026,0.0481,0.0482,0.0556,0.0485,0.0438,0.0445,0.043,0.0416,0.0567,0.0567,0.0567,0.0567,0,-0.0616,-0.0646,-0.0679,-0.0757,-0.0794,-0.0819,-0.0818,-0.0804,-0.0706,-0.0638,-0.0464,-0.0294,-0.0105,0.0108,0.0275,0.0421,0.0513,0.0557,0.0557,0.0491,0.044,0.0444,0.043,0.0567,0.0567,0.0567,0.0567,0,-0.0636,-0.0673,-0.0733,-0.0792,-0.0854,-0.0884,-0.0878,-0.0817,-0.0768,-0.0596,-0.0539,-0.0301,-0.0151,0.0077,0.0234,0.0376,0.0394,0.0412,0.042,0.0421,0.0309,0.0218,0.0318,0,0,0,0,0,-0.064,-0.0688,-0.0758,-0.0827,-0.0892,-0.0919,-0.0916,-0.089,-0.0802,-0.0687,-0.0604,-0.0413,-0.0135,-0.0001,0.0136,0.0194,0.0385,0.0351,0.04,0.0568,0.0568,0.0453,0,0,0,0,0,0,-0.0648,-0.0717,-0.0757,-0.0843,-0.0895,-0.0949,-0.0951,-0.0893,-0.0812,-0.0697,-0.0541,-0.0413,-0.0143,-0.0211,0.0132,0.0178,0.0217,0.0499,0.0501,0.0568,0.0568,0.0568,0.045,0,0,0,0,0]}]]